Location: Lynch Observatory
(39.9540°N, 75.1861°W)
Time: 15:02:46
(UTC-04:00)

AO-85 - Visible Passes

Search period start: 22 April 2024 00:00
Search period end: 02 May 2024 00:00
Orbit: 516 x 753 km, 64.8° (Epoch: 04 January)

Date Brightness Start Highest point End Pass type
(mag) Time Alt. Az. Time Alt. Az. Time Alt. Az.
22 Apr ? 01:47:41 12° NNW 01:47:41 12° NNW 01:48:34 10° NNW visible
23 Apr ? 00:28:12 14° NNE 00:28:12 14° NNE 00:29:00 10° NNE visible
24 Apr ? 00:45:46 16° NNW 00:45:46 16° NNW 00:47:15 10° N visible
24 Apr ? 23:26:03 14° NNE 23:26:03 14° NNE 23:26:46 10° NNE visible
25 Apr ? 01:03:12 11° NW 01:03:12 11° NW 01:04:41 10° NNW visible
25 Apr ? 23:43:19 22° N 23:43:19 22° N 23:45:19 10° NNE visible
26 Apr ? 22:23:09 17° NE 22:23:09 17° NE 22:24:14 10° NE visible
27 Apr ? 00:00:16 19° NW 00:00:16 19° NW 00:03:30 10° N visible
27 Apr ? 22:39:40 47° N 22:39:40 47° N 22:43:05 10° NNE visible
28 Apr ? 00:18:29 10° NW 00:19:32 11° NW 00:20:38 10° NNW visible
28 Apr ? 05:25:02 10° N 05:27:44 14° NE 05:30:28 10° ENE visible
28 Apr ? 21:18:07 25° E 21:18:07 25° E 21:21:16 10° NE visible
28 Apr ? 22:55:05 19° W 22:57:28 32° NW 23:01:34 10° NNE visible
29 Apr ? 21:32:02 10° SSW 21:36:08 59° ESE 21:40:32 10° NE visible
29 Apr ? 23:13:37 10° W 23:16:34 18° NW 23:19:40 10° N visible
30 Apr ? 21:50:40 10° SW 21:54:50 61° NW 21:59:19 10° NNE visible
30 Apr ? 23:35:46 10° NW 23:35:52 10° NW 23:36:00 10° NNW visible
01 May ? 04:41:06 10° N 04:44:03 15° NE 04:47:02 10° ENE visible
01 May ? 20:30:15 10° S 20:33:50 28° ESE 20:37:37 10° NE visible
01 May ? 22:09:57 10° WSW 22:13:44 30° NW 22:17:45 10° NNE visible
